This demonstration page uses our WeatherBlox Daily Observations layout. Learn more.

Left ArrowRight Arrow

Hourly Observations for September 18, 2015

Temp ( °F °C ) Dew Point ( °F °C ) Humidity (%) Winds ( mph kmh ) Pressure ( in mb ) Visibility ( mi km ) Precip ( " mm )
12:53 am 00:53 Clear 55 12.8 54 12.2 96 96 Calm 30.02 1017 10 16.0934 0 0
1:53 am 01:53 Clear 54 12.2 53 11.7 97 97 Calm 30.01 1016 10 16.0934 0 0
2:53 am 02:53 Clear 54 12.2 52 11.1 93 93 Calm 30.01 1016 9 14.48406 0 0
3:53 am 03:53 Clear 53 11.7 52 11.1 96 96 Calm 30 1016 8 12.87472 0 0
4:53 am 04:53 Clear 53 11.7 52 11.1 96 96 Calm 29.99 1016 8 12.87472 0 0
5:53 am 05:53 Clear 54 12.2 52 11.1 93 93 Calm 29.99 1016 8 12.87472 0 0
6:53 am 06:53 Clear 54 12.2 53 11.7 97 97 Calm 29.99 1016 7 11.26538 0 0
7:53 am 07:53 Sunny 56 13.3 54 12.2 93 93 E 5 7 30.01 1016 8 12.87472 0 0
8:53 am 08:53 Sunny 65 18.3 60 15.6 84 84 Calm 30.03 1017 9 14.48406 0 0
9:53 am 09:53 Sunny 72 22.2 60 15.6 66 66 SSE 3 6 30.01 1016 10 16.0934 0 0
10:53 am 10:53 Cloudy 67 19.4 61 16.1 81 81 VRB 3 6 30.04 1017 10 16.0934 0 0.0254
11:07 am 11:07 Cloudy with Light Rain 67 19.4 63 17.2 87 87 VRB 5 7 30.03 1017 2 3.21868 0.03 0.762
11:16 am 11:16 Cloudy with Light Rain 67 19.4 64 17.8 91 91 S 6 9 30 1016 7 11.26538 0.04 1.016
11:53 am 11:53 Sunny 74 23.3 63 17.2 69 69 VRB 6 9 29.97 1015 10 16.0934 0.04 1.016
12:53 pm 12:53 Sunny 76 24.4 63 17.2 64 64 W 7 11 29.96 1015 10 16.0934 0 0
1:53 pm 13:53 Sunny 81 27.2 65 18.3 58 58 VRB 3 6 29.96 1014 10 16.0934 0 0
2:53 pm 14:53 Sunny 83 28.3 64 17.8 53 53 VRB 6 9 29.93 1014 10 16.0934 0 0
3:53 pm 15:53 Mostly Sunny 83 28.3 65 18.3 55 55 S 8 13 29.92 1013 10 16.0934 0 0
4:53 pm 16:53 Partly Cloudy 83 28.3 65 18.3 55 55 VRB 6 9 29.91 1013 10 16.0934 0 0
5:53 pm 17:53 Mostly Cloudy 82 27.8 64 17.8 55 55 VRB 6 9 29.91 1013 10 16.0934 0 0
6:53 pm 18:53 Partly Cloudy 80 26.7 66 18.9 62 62 VRB 3 6 29.9 1013 10 16.0934 0 0
7:53 pm 19:53 Mostly Clear 72 22.2 67 19.4 84 84 Calm 29.91 1013 10 16.0934 0 0
8:53 pm 20:53 Mostly Clear 71 21.7 66 18.9 84 84 Calm 29.91 1013 10 16.0934 0 0.0254
9:53 pm 21:53 Cloudy 69 20.6 66 18.9 90 90 Calm 29.91 1013 10 16.0934 0 0
10:53 pm 22:53 Clear 68 20 65 18.3 90 90 Calm 29.91 1013 10 16.0934 0 0
11:53 pm 23:53 Clear 69 20.6 64 17.8 84 84 E 3 6 29.91 1013 10 16.0934 0 0

Powered by AerisWeather